Current weather by "City, St" or "zip code"  
 

Current Conditions: Carlsbad, Cavern City Air Terminal Airport, NM

Partly Cloudy


95.0 F

Last Updated on Jul 3 2022, 2:53 pm MDT
Humidity: 24%
Wind Speed: E 11.5 G 20.7 mph
Barometer 29.96 in
Dewpoint: 53.1 F
Visibility: 10.00 mi
Precip: --
Heat Index: 93 F
Wind Chill: NA
Current conditions at:

Carlsbad, Cavern City Air Terminal Airport, NM (KCNM)

Lat: 32.3375 Lon: 104.26333

Local Radar Image active severe weather and emergency alerts image image weather storm and storm spotter reports image weather observation monitoring service image
Local
Radar
Active
Alerts
Storm Reports Obs
Monitoring

Sign-up For Email & Text Message Weather Alert Notification Services



Advertise Here

Observation History for Carlsbad, Cavern City Air Terminal Airport, NM


Time Wind
(mph)
Vis
(mi)
Weather Precip (in) Temperature (F) Relative
Humidity
Wind
Chill
(F)
Heat
Index
(F)
Pressure
Air Dwpt altimeter
(in)
sea level
(mb)
Rmks
2:53 pm MDT E 11.5 G 20.7 10.00 Partly Cloudy -- 95.0 53.1 24% NA 93 29.96 1008.0
1:53 pm MDT E 12.7 G 17.3 10.00 A Few Clouds -- 95.0 53.1 24% NA 93 29.98 1008.6
12:53 pm MDT E 6.9 10.00 Fair -- 92.0 55.0 29% NA 90 30.00 1009.5
11:53 am MDT E 9.2 10.00 Fair -- 89.0 57.9 35% NA 88 30.03 1010.3
10:53 am MDT SE 6.9 10.00 Fair -- 86.0 57.0 37% NA 85 30.04 1010.7
9:53 am MDT SE 5.8 10.00 Fair -- 82.0 59.0 46% NA 82 30.03 1010.9
8:53 am MDT SE 8.1 10.00 Fair -- 80.0 59.0 49% NA 81 30.04 1010.7
7:53 am MDT SE 5.8 10.00 Fair -- 76.0 59.0 56% NA NA 30.03 1010.4
6:53 am MDT S 4.6 10.00 Fair -- 73.0 59.0 62% NA NA 30.02 1010.2
5:53 am MDT S 3.5 10.00 Fair -- 71.0 57.9 63% NA NA 30.01 1009.9
4:53 am MDT SE 4.6 10.00 Fair -- 72.0 57.9 61% NA NA 30.00 1009.5
3:53 am MDT S 6.9 10.00 Fair -- 75.0 57.9 55% NA NA 29.99 1009.2
2:53 am MDT S 5.8 10.00 Fair -- 76.0 57.9 54% NA NA 29.99 1008.9
1:53 am MDT S 6.9 10.00 Fair -- 78.0 57.9 50% NA NA 29.99 1009.0
12:53 am MDT S 9.2 10.00 Fair -- 79.0 57.9 49% NA NA 29.98 1008.8
11:53 pm MDT SE 8.1 10.00 Fair -- 81.0 57.0 44% NA 81 29.98 1008.7
10:53 pm MDT SE 15.0 G 23.0 10.00 Fair -- 84.0 55.9 38% NA 83 29.97 1008.3
9:53 pm MDT S 6.9 10.00 Fair -- 82.0 50.0 33% NA 81 29.94 1007.5
8:53 pm MDT S 8.1 10.00 Fair -- 89.0 48.9 25% NA 86 29.92 1006.5
7:53 pm MDT E 6.9 10.00 Fair -- 93.0 39.9 16% NA 89 29.89 1005.5
6:53 pm MDT E 12.7 10.00 Fair -- 97.0 37.9 13% NA 92 29.88 1005.1
5:53 pm MDT 4.6 10.00 Fair -- 97.0 37.9 13% NA 92 29.88 1005.4
4:53 pm MDT E 13.8 G 21.9 10.00 Fair -- 99.0 41.0 14% NA 94 29.90 1005.7
3:53 pm MDT SE 10.4 G 17.3 10.00 Fair -- 97.0 44.1 16% NA 93 29.91 1006.4

Regional Weather Observation


Artesia Municipal Airport, NM (KATS)

Fair
93.0 F

Roswell International Air Center Airport, NM (KROW)

Fair
96.0 F

Pine Springs, Guadalupe Mountains National Park, TX (KGDP)

Mostly Cloudy
81.0 F

Hobbs / Lea County, NM (KHOB)

A Few Clouds
91.0 F

Alamogordo-White, NM (KALM)

A Few Clouds
97.0 F

Sierra Blanca Regional Airport, NM (KSRR)

Fair
81.0 F

Advertise Here


Advertise Here